This is the latest recevied weather packets stored in our database for station/object OK1UOJ. If no packets are shown the sender has not sent any weather packets the latest 10 day(s).
| Time | Temp. | Humidity | Pressure | Rain* | Wind** | Luminosity | Snow |
|---|---|---|---|---|---|---|---|
| 1777566037 | 13.33° C | 43% | 1029.7 hPa | - | - | - | - |
| 1777566032 | 13.33° C | 43% | 1029.7 hPa | - | - | - | - |
| 1777565760 | 13.33° C | 40% | 1029.7 hPa | - | - | - | - |
| 1777565200 | 13.33° C | 40% | 1029.8 hPa | - | - | - | - |
| 1777564922 | 13.89° C | 40% | 1029.9 hPa | - | - | - | - |
| 1777564650 | 13.89° C | 39% | 1029.9 hPa | - | - | - | - |
| 1777564645 | 13.89° C | 39% | 1029.9 hPa | - | - | - | - |
| 1777564089 | 13.89° C | 36% | 1029.9 hPa | - | - | - | - |
| 1777563833 | 14.44° C | 36% | 1029.8 hPa | - | - | - | - |
| 1777563817 | 14.44° C | 36% | 1029.8 hPa | - | - | - | - |
| 1777563817 | 14.44° C | 36% | 1029.8 hPa | - | - | - | - |
| 1777563812 | 14.44° C | 36% | 1029.8 hPa | - | - | - | - |
| 1777563534 | 14.44° C | 36% | 1029.8 hPa | - | - | - | - |
| 1777563262 | 14.44° C | 36% | 1029.7 hPa | - | - | - | - |
| 1777563257 | 14.44° C | 36% | 1029.7 hPa | - | - | - | - |
| 1777562707 | 14.44° C | 33% | 1029.7 hPa | - | - | - | - |
| 1777562701 | 14.44° C | 33% | 1029.7 hPa | - | - | - | - |
| 1777562146 | 16.11° C | 31% | 1029.8 hPa | - | - | - | - |
| 1777561868 | 16.11° C | 30% | 1029.9 hPa | - | - | - | - |
| 1777561595 | 15.56° C | 31% | 1029.8 hPa | - | - | - | - |
| 1777561590 | 15.56° C | 31% | 1029.8 hPa | - | - | - | - |
| 1777561312 | 15.56° C | 32% | 1029.9 hPa | - | - | - | - |
| 1777561034 | 16.67° C | 30% | 1029.8 hPa | - | - | - | - |
| 1777560478 | 16.67° C | 28% | 1030 hPa | - | - | - | - |
| 1777559923 | 16.67° C | 30% | 1030 hPa | - | - | - | - |
* Rain since midnight (hover to see other rain measurements)
** Current wind speed in m/s (hover to see current wind gust speed)